EUTE 25C (EUTE W5)

Satellite information

Favourite Embed

Satellite Type and Status

PAYLOADIN ORBIT

Key statistics

Satellite EUTE 25C (EUTE W5) at a glance.

Uptime

8205

Days in orbit

Revolutions

≈ 1.0

Per day

Orbit

OTHER

Other

Inclination

8.0

Latest

Satellite identification and parameters

Extended collection of information and parameters for EUTE 25C (EUTE W5).

Object identification

Identified? True

Debris? False

Object name: EUTE 25C (EUTE W5)

International designator: 2002-051A

Object number (NORAD): 27554

Object ID (CCSDS): 27554

Country: EUROPEAN TELECOMMUNICATIONS SATELLITE ORGANIZATION (EUTELSAT) (EUTE)

Current information (Y/N): Y

RCS size: LARGE

Orbital parameters

Period: 1436.457 minutes

Inclination: 8.0138 deg

SMA: 42171.776 km

Apoapsis: 35855.153 km

Periapsis: 35732.13 km

RAAN: 64.23 deg

Eccentricy: 0.0014586

Argument of periapsis: 326.2555 deg

Mean anomaly: 231.0923 deg

Mean motion: 1.00246662 rev/day

Mean motion (dot): -0.0000035 rev/day2

B* drag term: 0.0 1/REarth

Two-line elements (TLE)

Creation date: May 8, 2025, 3:01 a.m.

Reference frame: TEME

Reference center: EARTH

Epoch: May 7, 2025, 5:57 p.m. UTC

TLE line 0: 0 EUTE 25C (EUTE W5)

TLE line 1: 1 27554U 02051A 25127.74836345 -.00000350 00000-0 00000-0 0 9997

TLE line 2: 2 27554 8.0138 64.2300 0014586 326.2555 231.0923 1.00246662 44737

Live tracking on map

Real-time ground track for satellite EUTE 25C (EUTE W5).

In-orbit conjunctions

There are no conjunctions computed for EUTE 25C (EUTE W5), at the moment. Check back to stay up to date, as we update our databases every day.

Go to all conjunctions

Associated space launch

EUTELSAT W5 was a European (EUTELSAT Consortium) geostationary communication spacecraft. EUTELSAT W5 was to provide voice, video, and Internet services to all countries in western Europe, central Asia, and the Indian subcontinent

EUTE 25C (EUTE W5) was lifted into orbit during the mission ‘Delta IV M+(4,2) | Eutelsat W5’, on board a Delta IV M+(4,2) space rocket.

The launch took place on Nov. 20, 2002, 10:39 p.m. from Space Launch Complex 37B.

For more information about the launch, click the button.

Launch to space Delta IV M+(4,2) | Eutelsat W5
Delta IV M+(4,2) | Eutelsat W5

Agency: N/A

Status: Launch Successful

Launch date: Nov. 20, 2002, 10:39 p.m. UTC

Rocket: Delta IV M+(4,2)

Launch pad: Space Launch Complex 37B

Location: Cape Canaveral SFS, FL, USA

...

Latest news about this satellite

There are no fresh news available about this satellite. Check back as we update our databases every day.


Newsletter sign-up

Weekly statistics, charts and insights to help you stay on top of the space industry.